Weather History for KNID - January, 2013

Change the Weather History Date:

Friday, January 4, 2013

  Actual Average Record
Temperature  
Mean Temperature 37 °F -  
Max Temperature 55 °F 56 °F 70 °F (2012)
Min Temperature 19 °F 31 °F 19 °F (2013)
Degree Days  
Heating Degree Days 28    
Moisture  
Dew Point 4 °F    
Average Humidity 31    
Maximum Humidity 48    
Minimum Humidity 13    
Precipitation  
Precipitation 0.00 in - - ()
Sea Level Pressure  
Sea Level Pressure 30.32 in    
Wind  
Wind Speed 3 mph (SSW)    
Max Wind Speed 8 mph    
Max Gust Speed -    
Visibility 10 miles    
Events      
Averages and records for this station are not official NWS values.
T = Trace of Precipitation, MM = Missing Value Source: NWS Daily Summary

Daily Weather History Graph

Daily Weather History Graph

Search for Another Location

Airport or City:

Trip Planner

Search our weather history database for the weather conditions in past years. The results will help you decide how hot, cold, wet, or windy it might be!

Date:

Astronomy

Jan. 04, 2013 Rise Set
Actual Time 7:01 AM PST 4:51 PM PST
Civil Twilight 6:32 AM PST 5:19 PM PST
Nautical Twilight 6:00 AM PST 5:51 PM PST
Astronomical Twilight 5:30 AM PST 6:22 PM PST
Moon No Moon Rise 11:01 AM PST (1/4)
Length of Visible Light 10h 46m
Length of Day
9h 50m
Waning Gibbous, 54% of the Moon is Illuminated
Jan 4
Waning Gibbous
Jan 4
Last Quarter
Jan 11
New
Jan 18
First Quarter
Jan 26
Full

Hourly Weather History & Observations

Time (PST) Temp. Windchill Dew Point Humidity Pressure Visibility Wind Dir Wind Speed Gust Speed Precip Events Conditions
12:56 AM 26.1 °F - 5.0 °F 41% 30.31 in 10.0 mi Calm Calm - N/A   Clear
1:56 AM 25.0 °F 16.3 °F 5.0 °F 43% 30.31 in 10.0 mi SSW 8.1 mph - N/A   Clear
2:56 AM 24.1 °F - 5.0 °F 44% 30.32 in 10.0 mi Calm Calm - N/A   Clear
3:56 AM 19.9 °F 11.1 °F 3.0 °F 48% 30.31 in 10.0 mi SSW 6.9 mph - N/A   Clear
4:56 AM 19.0 °F - 1.0 °F 46% 30.32 in 10.0 mi Calm Calm - N/A   Clear
5:56 AM 19.0 °F - 1.9 °F 47% 30.35 in 10.0 mi Calm Calm - N/A   Clear
6:56 AM 19.0 °F 12.3 °F 1.0 °F 46% 30.37 in 10.0 mi SSW 4.6 mph - N/A   Clear
7:56 AM 23.0 °F - 3.9 °F 44% 30.39 in 10.0 mi Calm Calm - N/A   Clear
8:56 AM 28.9 °F - 3.9 °F 35% 30.40 in 10.0 mi Calm Calm - N/A   Clear
9:56 AM 36.0 °F - 6.1 °F 29% 30.39 in 10.0 mi Calm Calm - N/A   Clear
10:56 AM 43.0 °F - 9.0 °F 25% 30.36 in 10.0 mi Calm Calm - N/A   Clear
11:56 AM 48.0 °F - 8.1 °F 20% 30.32 in 10.0 mi North 3.5 mph - N/A   Clear
12:56 PM 52.0 °F - 9.0 °F 18% 30.27 in 10.0 mi Variable 3.5 mph - N/A   Clear
1:56 PM 54.0 °F - 8.1 °F 16% 30.26 in 10.0 mi Calm Calm - N/A   Clear
2:56 PM 55.0 °F - 7.0 °F 15% 30.25 in 10.0 mi NNE 3.5 mph - N/A   Clear
3:56 PM 54.0 °F - 3.9 °F 13% 30.26 in 10.0 mi ENE 4.6 mph - N/A   Clear
4:56 PM 48.9 °F - 3.0 °F 15% 30.27 in 10.0 mi Calm Calm - N/A   Clear
5:56 PM 39.9 °F 36.7 °F 1.0 °F 20% 30.29 in 10.0 mi South 4.6 mph - N/A   Clear
6:56 PM 37.9 °F 34.4 °F 3.9 °F 24% 30.31 in 10.0 mi WSW 4.6 mph - N/A   Clear
7:56 PM 35.1 °F 28.6 °F 1.9 °F 25% 30.32 in 10.0 mi SSW 8.1 mph - N/A   Clear
8:56 PM 34.0 °F 27.2 °F 3.9 °F 28% 30.32 in 10.0 mi SSW 8.1 mph - N/A   Clear
9:56 PM 32.0 °F 24.8 °F 1.9 °F 28% 30.32 in 10.0 mi SW 8.1 mph - N/A   Clear
10:56 PM 28.0 °F 24.2 °F 1.0 °F 31% 30.32 in 10.0 mi SSW 3.5 mph - N/A   Clear
11:56 PM 26.1 °F - 1.9 °F 35% 30.32 in 10.0 mi Calm Calm - N/A   Clear